This demonstration page uses our WeatherBlox Daily Observations layout. Learn more.

Left ArrowRight Arrow

Hourly Observations for September 23, 2018

Temp ( °F °C ) Dew Point ( °F °C ) Humidity (%) Winds ( mph kmh ) Pressure ( in mb ) Visibility ( mi km ) Precip ( " mm )
12:53 am 00:53 Clear 56 13.3 49 9.4 77 77 undefined N/A 30.04 1017 10 16 0.00 0.00
1:53 am 01:53 Clear 55 12.8 49 9.4 80 80 S 7 11 30.03 1017 10 16 0.00 0.00
2:53 am 02:53 Clear 53 11.7 49 9.4 86 86 S 7 11 30.02 1017 10 16 0.00 0.00
3:53 am 03:53 Clear 52 11.1 49 9.4 89 89 S 5 7 30.02 1017 10 16 0.00 0.00
4:53 am 04:53 Clear 51 10.6 49 9.4 92 92 S 7 11 30.01 1016 10 16 0.00 0.00
5:53 am 05:53 Clear 51 10.6 49 9.4 92 92 S 6 9 30.00 1016 10 16 0.00 0.00
6:53 am 06:53 Clear 51 10.6 49 9.4 92 92 S 6 9 30.00 1016 10 16 0.00 0.00
7:53 am 07:53 Sunny 52 11.1 49 9.4 89 89 S 8 13 30.00 1016 10 16 0.00 0.00
8:53 am 08:53 Sunny 55 12.8 52 11.1 90 90 S 10 17 30.01 1016 10 16 0.00 0.00
9:53 am 09:53 Sunny 62 16.7 54 12.2 75 75 S 13 20 30.01 1016 10 16 0.00 0.00
10:53 am 10:53 Sunny 68 20 55 12.8 63 63 S 10 17 30.00 1016 10 16 0.00 0.00
11:53 am 11:53 Sunny 71 21.7 55 12.8 57 57 S 12 19 30.00 1016 10 16 0.00 0.00
12:53 pm 12:53 Sunny 74 23.3 54 12.2 50 50 SSW 15 24 29.97 1015 10 16 0.00 0.00
1:53 pm 13:53 Sunny 77 25 56 13.3 48 48 S 14 22 29.94 1014 10 16 0.00 0.00
2:53 pm 14:53 Sunny 79 26.1 52 11.1 39 39 S 15 24 29.91 1013 10 16 0.00 0.00
3:53 pm 15:53 Sunny 80 26.7 52 11.1 38 38 S 15 24 29.89 1012 10 16 0.00 0.00
4:53 pm 16:53 Sunny 80 26.7 52 11.1 38 38 S 16 26 29.88 1012 10 16 0.00 0.00
5:53 pm 17:53 Sunny 77 25 54 12.2 45 45 SSE 17 28 29.88 1012 10 16 0.00 0.00
6:53 pm 18:53 Sunny 74 23.3 53 11.7 48 48 SSE 14 22 29.87 1012 10 16 0.00 0.00
7:53 pm 19:53 Clear 71 21.7 55 12.8 57 57 SSE 12 19 29.87 1012 10 16 0.00 0.00
8:53 pm 20:53 Clear 67 19.4 55 12.8 66 66 SSE 10 17 29.89 1012 10 16 0.00 0.00
9:53 pm 21:53 Clear 65 18.3 56 13.3 73 73 SSE 12 19 29.89 1012 10 16 0.00 0.00
10:53 pm 22:53 Clear 63 17.2 56 13.3 78 78 S 9 15 29.88 1012 10 16 0.00 0.00
11:53 pm 23:53 Clear 63 17.2 57 13.9 81 81 S 8 13 29.88 1012 10 16 0.00 0.00

Powered by AerisWeather